www.pogodaiklimat.ru

Погода и климат >> Архив погоды >> Россия >> Камчатский край >> Долиновка


ПОГОДА в Долиновке

  • Прогноз погоды в Долиновке
  • Монитор погоды в Долиновке

АРХИВ ПОГОДЫ в Долиновке

Время (UTC), дата Ветер
(напр.,м/с)
 
Видим.   Явления Облачность Т
(С)
Тd
(С)
f
(%)
Тe
(С)
Тes
(С)
Комфортность P
(гПа)
Po
(гПа)
Тmin
(С)
Tmax
(С)
R
(мм)
R24
(мм)
S
(см)
12 15.01 штиль 0 10 баллов 83 1004.0
15 15.01 З 1 10 баллов 81 1005.3
18 15.01 штиль 0 10 баллов 82 1005.3
21 15.01 штиль 0
{2}
слаб. снег н/о 82 1006.7 0.0
00 16.01 штиль 0 20 км слаб. ливневой снег 10 баллов -15.9 -18.8 78 -16 -16 1020.4 1006.7
03 16.01 штиль 0 7 баллов 75 1005.3
06 16.01 штиль 0 50 км 9 баллов -16.6 -18.9 82 -17 -17 1019.0 1005.3
09 16.01 штиль 0
{4}
20 км 10 баллов -18.2 -20.2 84 -18 -18 1017.8 1004.0 -14.4 0.0
12 16.01 штиль 0 20 км слаб. ливневой снег 10 баллов -17.6 -19.6 84 -18 -18 1017.8 1004.0
15 16.01 штиль 0 20 км слаб. ливневой снег 10 баллов -18.4 -20.4 84 -18 -18 1015.1 1001.3
18 16.01 штиль 0 слаб. снег н/о 82 998.7
21 16.01 штиль 0
{3}
20 км слаб. ливневой снег 10 баллов -19.6 -22.2 80 -20 -20 1009.8 996.0 -19.9 0.2
00 17.01 В 2 50 км 9 баллов -18.9 -22.5 73 -25 -24 1007.0 993.3
03 17.01 СВ 2 50 км 9 баллов -15.5 -20.0 68 -21 -20 1001.4 988.0
06 17.01 штиль 0 20 км слаб. ливневой снег 10 баллов -15.7 -18.3 80 -16 -16 998.7 985.3
09 17.01 ЮЗ 1
{7}
10 км слаб. ливневой снег 10 баллов -17.6 -19.6 84 -20 -20 1000.2 986.7 -14.8 2
12 17.01 штиль 0 1000 м ливневой снег 10 баллов -17.7 -19.7 84 -18 -18 1001.6 988.0
15 17.01 штиль 0 4000 м слаб. ливневой снег 10 баллов -18.3 -20.3 84 -18 -18 1001.6 988.0
18 17.01 З 1 4000 м слаб. ливневой снег 10 баллов -18.4 -20.4 84 -21 -21 1002.9 989.3
21 17.01 штиль 0
{4}
20 км ясно -22.9 -25.7 78 -23 -23 1004.6 990.7 -22.9 3
00 18.01 штиль 0 50 км 7 баллов -20.2 -22.7 80 -20 -20 1004.4 990.7 -27.0
03 18.01 ЮЗ 1 ясно 74 989.3
06 18.01 штиль 0 50 км 2 балла -23.1 -25.2 83 -23 -23 1003.2 989.3
09 18.01 штиль 0
{2}
9 баллов 77 989.3
12 18.01 штиль 0 ясно 71 989.3
15 18.01 штиль 0 9 баллов 69 989.3
18 18.01 штиль 0 10 баллов 72 989.3
21 18.01 штиль 0
{2}
20 км 10 баллов -26.4 -29.3 76 -26 -26 1003.4 989.3 -35.7
00 19.01 штиль 0 50 км 10 баллов -22.9 -25.8 77 -23 -23 1003.2 989.3
03 19.01 штиль 0 50 км 9 баллов -19.4 -22.8 74 -19 -19 998.9 985.3
06 19.01 Ю 1 20 км слаб. ливневой снег 10 баллов -17.1 -19.7 80 -20 -20 998.8 985.3
09 19.01 Ю 1
{3}
20 км 10 баллов -16.7 -18.9 83 -19 -19 997.4 984.0 -16.7 0.2
12 19.01 ЮЗ 1 20 км 10 баллов -15.4 -17.6 83 -18 -18 997.4 984.0
15 19.01 штиль 0 20 км 10 баллов -15.2 -17.0 86 -15 -15 996.1 982.7
18 19.01 штиль 0 20 км 10 баллов -14.3 -15.8 88 -14 -14 994.6 981.3
21 19.01 штиль 0
{3}
20 км 10 баллов -13.7 -15.3 88 -14 -14 994.6 981.3 -16.7
00 20.01 штиль 0 50 км 10 баллов -10.9 -12.4 89 -11 -11 994.4 981.3
03 20.01 З 1 50 км 9 баллов -6.6 -8.8 84 -9 -9 992.9 980.0
06 20.01 штиль 0 50 км 9 баллов -11.3 -12.3 92 -11 -11 990.4 977.3
09 20.01 СВ 3
{10}
20 км 9 баллов -1.0 -4.2 79 -6 -6 988.6 976.0 -0.9
12 20.01 СВ 3 20 км 7 баллов -1.1 -4.8 76 -6 -6 988.6 976.0
15 20.01 В 2
{10}
20 км 10 баллов -0.8 -4.1 78 -4 -4 991.3 978.7
18 20.01 СВ 1
{11}
10 км слаб. ливневой снег 10 баллов -2.3 -2.4 99 -5 -5 995.4 982.7
21 20.01 В 2
{11}
20 км слаб. ливневой снег 10 баллов -2.0 -2.0 100 -6 -6 999.4 986.7 -4.8 2
00 21.01 СВ 1 50 км 6 баллов -1.8 -2.9 92 -4 -3 1000.7 988.0
03 21.01 СВ 1 50 км 9 баллов +2.3 -4.2 62 +1 +1 1000.6 988.0
06 21.01 СВ 2 50 км 9 баллов -0.3 -5.7 67 -4 -4 1000.7 988.0
09 21.01 В 1
{6}
20 км 9 баллов -1.1 -4.3 79 -3 -3 1000.7 988.0 +2.3 1
12 21.01 СВ 1 20 км 9 баллов -0.7 -3.5 81 -3 -3 1000.7 988.0
15 21.01 СВ 2 20 км 9 баллов 0.0 -3.5 77 -3 -3 1000.7 988.0
18 21.01 С 1 20 км 9 баллов -0.1 -3.6 77 -2 -2 1002.0 989.3
21 21.01 С 1
{6}
20 км 6 баллов -1.6 -4.4 81 -4 -4 1003.5 990.7 -2.8
00 22.01 СВ 2 50 км 9 баллов -0.2 -4.1 75 -4 -4 1004.7 992.0
03 22.01 СВ 3 50 км 6 баллов +2.6 -6.8 50 -1 -0 1005.9 993.3
06 22.01 С 2 50 км 2 балла -1.1 -6.2 68 -5 -5 1007.5 994.7

 

Местоположение метеостанции Долиновка (Камчатский край, Россия): широта 55.12 долгота 159.00 высота над уровнем моря 102 м.

В архиве по умолчанию представлена погода в Долиновке за последнюю неделю. Архивные данные за месяц целиком и за предыдущие месяцы, начиная с января 2011 года, Вы можете получить, выбрав интересующий диапазон дат из раскрывающегося списка и нажав кнопку "Ввод!".


*Определитесь, кто Вы:
робот инопланетянин человек

Внимание! Время в таблицах - всемирное. Для получения местного времени необходимо прибавить поправку, которая равна 12 ч.

Смотрите также архив погоды в соседних городах и на ближайших метеорологических станциях:

Погода в Мильково (Камчатский край, Россия) (58 км)
Погода в Эссо (Камчатский край, Россия) (92 км)
Погода в Козыревске (Камчатский край, Россия) (115 км)
Погода в Пущино (Камчатский край, Россия) (123 км)
Погода в Семячике (Камчатский край, Россия) (125 км)
Погода в Ключах (Камчатский край, Россия) (175 км)
Погода в Соболево (Камчатский край, Россия) (219 км)
Погода в Иче (Камчатский край, Россия) (227 км)
Погода в Петропавловск-Камч. 2 (Камчатский край, Россия) (229 км)
Погода в Сосновке (Камчатский край, Россия) (231 км)

Пояснения к столбцам:

Ветер - указаны скорость ветра в м/с - средняя за 10 мин, порывы в срок и между сроками (в фигурных скобках) и направление, откуда дует ветер: С - северный, СВ - северо-восточный, В - восточный, ЮВ - юго-восточный, Ю - южный, ЮЗ - юго-западный, З - западный, СЗ - северо-западный.
Видимость - горизонтальная дальность видимости в метрах или километрах. При видимости от 1 до 10 км при отсутствии осадков обычно наблюдается дымка, при ухудшении видимости до 1 км и менее - туман. В сухую погоду видимость может ухудшаться дымом, пылью или мглою.
Явления - указаны атмосферные явления, наблюдавшиеся в срок или в последний час перед сроком; фигурными скобками обозначены явления, наблюдавшиеся между сроками (за 1-3 часа до срока); квадратными скобками обозначены град или гололедные отложения с указанием их диаметра в мм.
Облачность - указаны через наклонную черту общая и нижняя облачность в баллах и высота нижней границы облаков в метрах; квадратными скобками обозначены формы облаков: Ci - перистые, Cs - перисто-слоистые, Cc - перисто-кучевые, Ac - высококучевые, As - высокослоистые, Sc - слоисто-кучевые, Ns - слоисто-дождевые, Cu - кучевые, Cb - кучево-дождевые. Подробнее классификацию облаков см. в Атласе облаков (PDF).
T - Температура воздуха - температура, измеренная на высоте 2 м над землей.
Td - Температура точки росы - температура, при понижении до которой содержащийся в воздухе водяной пар достигнет насыщения.
f - Относительная влажность воздуха - влажноcть воздуха, измеренная на высоте 2 м над землей.
Te - Эффективная температура - температура, которую ощущает одетый по сезону человек в тени. Характеристика душности погоды. При расчете учитывается влияние влажности воздуха и скорости ветра на теплоощущения человека.
Tes - Эффективная температура на солнце - температура, которую ощущает человек, с поправкой на солнечный нагрев. Характеристика знойности погоды. Зависит от высоты солнца над горизонтом, облачности и скорости ветра. Ночью, в пасмурную погоду, а также при ветре 12 м/с и более поправка равна нулю.
P - Атмосферное давление - приведенное к уровню моря атмосферное давление.
Po - Атмосферное давление - измеренное на уровне метеостанции атмосферное давление.
Tmin - Минимальная температура - минимум температуры воздуха на высоте 2 м над землей.
Tmax - Максимальная температура - максимум температуры воздуха на высоте 2 м над землей.
R - Количество осадков - Количество выпавших осадков за период времени, мм. При наведении курсора мыши на число - период времени, за который выпало указанное количество осадков.
R24 - Количество осадков - Количество выпавших осадков за 24 часа, мм.
S - Снежный покров - Высота снежного покрова, см. При наведении курсора мыши на число - состояние снежного покрова и степень покрытия местности в баллах.